SPACEBEE-22 (46953 NORAD) Tracking and Keplerian Element Data

This shows tracking and keplerian element data for the satellite.

Feedback or suggestion? Click here.




ElementValue
Catalog46953
NameSPACEBEE-22
Epoch Orbit935
Epoch Day20.65241945
Epoch Year2021
RAAN159.9529
Inclination97.3735
Eccentricity0.0016586
Argument of Perigee97.0822
Mean Anonmoly263.2319
Mean Motion15.209956
Decay Rate3.574E-05
L11 46953U 20085AA 21020.65241945 .00003574 00000-0 16376-3 0 9998
L22 46953 97.3735 159.9529 0016586 97.0822 263.2319 15.20995600 9357

Live tracking and technical data element details for SPACEBEE-22 (NORAD 46953). SPACEBEE-22 can be tracked NOW for your location showing map with azimuth and elevation plus other details from your city location.

Track the satellite on the map from your city or location and see movement details for azimuth, elevation, latitude, longitude, range, height, and movement on the map or in text.







IsCatalogInMostPopularTable: catalog: 46953, numindb: 19
Update: records affected: 1



GetName: 46953 SPACEBEE-22

Hit Count: updated at: Fri, 22 Jan 2021 19:57:54 GMT